Voltar ao catálogo

FENGYUN 1C DEB

AtivoPO
NORAD 35111·DEBRIS·🇨🇳 China

Lançado May 10, 1999 de Taiyuan Satellite Launch Center

Loading…

Próximas Passagens (próximas 24 horas)

TLE

AtualizadoSource: Space-Track

Época: Sep 12, 2026, 11:41 UTC

1 35111U 99025DKP 26255.48726773  .00000484  00000-0  29421-3 0  9997
2 35111  99.4568 353.5456 0022326 179.8808 180.2370 14.11344720680058

Acompanhe FENGYUN 1C DEB em tempo real com AllMySat

Download on the App Store